Regional Weather Roundup
Issued by NWS

Home | Current Version | Previous Version | Text Only | Print | Product List | Glossary Off
Versions: 1 2 3 4 5 6 7 8 9 10 11 12 13 14 15 16 17 18 19 20 21 22 23 24 25 26 27 28 29 30 31 32 33 34 35 36 37 38 39 40 41 42 43 44 45 46 47 48 49 50

000
ASUS43 KLOT 180204
RWRIL

ILLINOIS REGIONAL WEATHER ROUNDUP
NATIONAL WEATHER SERVICE CHICAGO/ROMEOVILLE IL
900 PM CDT TUE OCT 17 2017

NOTE: "FAIR" INDICATES FEW OR NO CLOUDS BELOW 12,000 FEET WITH NO
SIGNIFICANT WEATHER AND/OR OBSTRUCTIONS TO VISIBILITY.

* THESE STATIONS ARE NOT UNDER NWS QUALITY CONTROL. THEY ALSO MAY NOT
  REPORT WEATHER SUCH AS PRECIPITATION OR FOG.

ILZ001-002-007-009-015-016-024-180300-
NORTHWEST ILLINOIS

CITY           SKY/WX    TMP DP  RH WIND       PRES   REMARKS
MOLINE         CLEAR     59  42  53 S9        30.10F
STERLING*      CLEAR     58  43  57 VRB5        N/A
SAVANNA*       CLEAR     54  43  66 S9        30.10S
$$

ILZ003-004-008-010-011-017-018-180300-
NORTH CENTRAL ILLINOIS

CITY           SKY/WX    TMP DP  RH WIND       PRES   REMARKS
ROCKFORD       CLEAR     53  42  66 S7        30.13R
FREEPORT*      CLEAR     54  41  61 S9        30.12S
ROCHELLE*      CLEAR     55  42  61 S9        30.13S
$$

ILZ005-006-012>014-019>023-180300-
NORTHEAST ILLINOIS

CITY           SKY/WX    TMP DP  RH WIND       PRES   REMARKS
CHICAGO-OHARE  CLEAR     61  40  45 SW12      30.14R
CHICAGO-MIDWAY CLEAR     61  40  45 S8G17     30.15R
AURORA         CLEAR     57  41  55 S8        30.14S
LANSING*       CLEAR     57  43  59 SW12      30.18R
JOLIET*        CLEAR     58  43  55 S5        30.16S
WAUKEGAN       CLEAR     56  43  61 SW8       30.11R
DUPAGE AIRPORT CLEAR     53  42  66 S6        30.13S
KANKAKEE*      CLEAR     54  39  57 S8        30.20R
WHEELING       CLEAR     59  42  53 S6        30.15R
NORTHERLY ISL    N/A     62  37  39 S9          N/A
$$

LMZ740>746-180300-
SOUTHERN LAKE MICHIGAN

STATION/POSITION SKY/WX   TEMP    WIND        PRES    VSBY  WAVE
                          AIR SEA DIR/SP/G                  HT/PER
                          (F)     (DEG/KT/KT) (MB)    (MI)  (FT/S)
SOUTHERN BUOY              63 61  210/ 14/ 16 1019.6          2/ 5
WILMETTE HARBOR            62 57  200/ 10/ 14   N/A           1/ 3
HARRISON CRIB              65     200/ 16/ 18   N/A
BURNHAM HARBOR             63     190/ 11/ 12   N/A
CALUMET HARBOR             62     190/  7/ 13 1020.3R
BURNS HARBOR               60     200/ 11/ 13 1022.0R
MICHIGAN CITY              60     180/ 10/ 11   N/A
MICHIGAN CITY 6N           60 57  200/  8/ 10   N/A           1/ 3
ST. JOSEPH                 60 58  200/ 12/ 14 1021.7R         2/ 4
$$

ILZ025>027-034>036-040-047-049-050-058-095>099-180300-
WEST-CENTRAL ILLINOIS

CITY           SKY/WX    TMP DP  RH WIND       PRES   REMARKS
QUINCY         CLEAR     56  42  59 S9        30.15R
GALESBURG*     CLEAR     53  43  69 SE6       30.15S
MACOMB*        CLEAR     53  42  66 S6        30.17S
JACKSONVILLE*  CLEAR     52  41  67 SE6       30.18R
$$

ILZ028>032-037-038-041>044-048-051>054-059>061-180300-
CENTRAL ILLINOIS

CITY           SKY/WX    TMP DP  RH WIND       PRES   REMARKS
BLOOMINGTON    CLEAR     49  40  71 S12       30.20S
DECATUR        CLEAR     50  39  66 S5        30.21S
PEORIA         CLEAR     56  42  59 S9        30.17R
LACON*         PTCLDY    56  40  56 S6        30.16R
LINCOLN*       CLEAR     54  42  64 S5        30.20R
SPRINGFIELD    CLEAR     53  42  66 S7        30.19S
TAYLORVILLE    CLEAR     52  40  63 S8        30.21S
$$

ILZ033-039-045-046-055>057-062-063-180300-
EAST-CENTRAL ILLINOIS

CITY           SKY/WX    TMP DP  RH WIND       PRES   REMARKS
CHAMPAIGN      CLEAR     48  39  71 S7        30.22S
DANVILLE*      CLEAR     51  40  65 S3        30.20S
MATTOON        CLEAR     53  42  66 S5        30.22S
PARIS*         CLEAR     46  40  81 S5        30.24S
$$

ILZ079-100>102-180300-
SOUTHWEST ILLINOIS

CITY           SKY/WX    TMP DP  RH WIND       PRES   REMARKS
BELLEVILLE     CLEAR     54  40  61 SE5       30.23S
CAHOKIA*       CLEAR     56  40  55 SE7       30.20S
SPARTA*        CLEAR     55  43  64 S5        30.23F
$$

ILZ064>066-069>071-074>076-080>082-084>086-088>090-092>094-180300-
SOUTH-CENTRAL ILLINOIS

CITY           SKY/WX    TMP DP  RH WIND       PRES   REMARKS
CARBONDALE     CLEAR     47  45  93 CALM      30.23S
MARION         CLEAR     54  45  70 S5        30.25R
MT. VERNON     CLEAR     44  43  96 CALM      30.23S
CENTRALIA*     PTCLDY    48  42  79 S3        30.22S
SALEM*         CLEAR     55  41  60 CALM      30.23R
METROPOLIS*    CLEAR     49  46  90 CALM      30.26R
$$

ILZ067-068-072-073-078-083-087-091-180300-
SOUTHEAST ILLINOIS

CITY           SKY/WX    TMP DP  RH WIND       PRES   REMARKS
LAWRENCEVILLE  CLEAR     52  44  74 S8        30.24S
FLORA*         CLEAR     52  42  70 S5        30.23S
FAIRFIELD*     CLEAR     55  42  62 S3        30.23S
HARRISBURG*    CLEAR     47  44  89 CALM      30.25S
ROBINSON*      CLEAR     43  41  93 CALM      30.25S
CARMI*         CLEAR     48  41  78 S5        30.25R
$$

ABBREVIATIONS USED IN REMARKS
   TC - TEMPERATURE IN CELSIUS
  WCI - WIND CHILL INDEX
   HX - HEAT INDEX
  VSB - VISIBILITY
$$




USA.gov is the U.S. government's official web portal to all federal, state and local government web resources and services.